Starlink 3560

operational
NORAD ID: 51859 Int'l Des: 2022-022 Owner: SPXS Country: US Constellation: starlink
LEOCIRCULAR

关于 Starlink 3560

正在加载描述...

实时位置

正在加载3D地球...

即将过境

高度历史

Altitude vs Time

uPlot chart will show altitude changes over time

两行轨道根数

1 51859U 22022H 26036.59565014 .00000042 00000-0 20712-4 0 9990
2 51859 53.2166 153.2083 0001214 88.7812 271.3319 15.08838915218316
Epoch: Feb 5, 2026 • Age: 18 hours

当前状态

高度 545.3 km
速度 7.60 km/s
星下点 52.18°N, 3.34°W
发射日期 Mar 3, 2022
运行时间 3.9 years
类型 internet

技术详情

分类 Payload
质量 297.00 kg
干质量 275.00 kg
总质量 297.00 kg
长度 0.20 m
直径 2.80 m
跨度 9.00 m
形状 Box + pan
制造商 SPXS
平台类型 Starlink
阶段状态 In Orbit
所有者/国家 SPXS/US

大型星座

Loading constellations...